weather.gov     
National Weather Service

Terminal Aerodrome Forecast
NWS Homepage
This page is being discontinued on March 12, 2014.
The same data is available at this site. Please update your bookmarks.
Thank you, and we apologize for the inconvenience.
Please send an email to SR-SRH.Webmaster@noaa.gov with any concerns.


Current Version
Previous Version:    01  02  03  04  05  06  07  08  09  10  11  12  13  14  15  16  17  18  19  20  21  22  23  24  25  
[Printable]
725
FTUS43 KFSD 220002 CCA
TAFFSD
TAF COR
KFSD 220002Z 2200/2224 16014KT P6SM SKC
     FM220600 16015G22KT P6SM SCT120
     FM221000 16016G24KT P6SM OVC015
     FM222000 19015KT 5SM -RA OVC015=


725
FTUS43 KFSD 220002 CCA
TAFFSD
TAF COR
KFSD 220002Z 2200/2224 16014KT P6SM SKC
     FM220600 16015G22KT P6SM SCT120
     FM221000 16016G24KT P6SM OVC015
     FM222000 19015KT 5SM -RA OVC015=




U.S. Dept. of Commerce
NOAA National Weather Service
1325 East West Highway
Silver Spring, MD 20910
E-mail: w-nws.webmaster@noaa.gov
Page last modified: May 16, 2007
NATIONAL WEATHER SERVICE: for Safety, for Work, for Fun - FOR LIFE